RH
8 10 14 18 18 25 25 21 29 47 59 61 62 70 82 92 81 84 100 88 84 88 87 79 74 72 70 70 72 74 75 73 74 75 75 76 74 74 71 73 78 80 84 78 51 46 46 49 52
12 16 20 20 22 24 30 25 40 58 64 67 64 66 80 95 84 97 95 98 95 88 87 84 78 73 74 75 75 75 75 76 76 77 76 72 73 73 69 57 50 57 66 67 39 36 38 43 47
14 19 17 21 26 24 30 36 56 55 50 50 53 50 68 94 86 94 98 99 95 93 90 85 78 76 76 75 72 75 74 75 74 71 70 69 60 49 44 44 47 41 35 42 32 29 29 28 29
20 18 18 20 20 19 26 52 48 50 42 48 50 62 62 77 85 87 99 99 99 95 94 88 83 75 68 67 71 67 66 66 64 62 54 48 43 43 42 38 31 29 28 28 28 28 28 28 28
24 22 21 21 21 24 21 45 53 50 49 49 47 60 72 94 83 95 99 100 97 98 95 86 75 62 59 61 62 64 61 55 53 49 44 41 40 39 35 32 29 28 28 31 39 43 43 37 36
21 22 24 35 39 33 45 42 49 50 51 53 60 66 85 98 90 98 96 97 93 90 83 70 58 52 51 54 52 48 47 47 48 42 40 39 40 42 41 40 40 45 42 48 46 46 47 47 50
20 23 23 37 39 35 40 37 54 50 50 51 52 83 91 95 99 95 97 94 84 64 51 49 45 41 43 41 40 44 46 46 44 42 48 47 51 55 54 52 51 51 50 46 48 48 48 48 49
23 19 21 24 40 39 27 36 46 46 52 41 53 93 97 82 96 97 93 74 53 44 40 35 34 36 38 41 43 45 44 44 44 55 57 57 59 60 61 56 54 55 55 51 50 51 49 48 48
16 22 23 24 38 36 29 33 22 40 46 46 45 66 68 81 89 82 69 60 52 44 35 33 34 38 38 41 42 44 41 42 55 60 62 61 62 64 64 63 59 58 57 56 54 53 53 52 49
21 24 20 18 21 33 30 32 42 47 52 51 56 64 73 81 78 69 67 63 54 45 44 40 34 30 30 34 37 44 48 58 61 62 64 65 66 67 68 68 64 59 54 52 51 52 53 53 50
18 20 13 12 20 15 25 29 39 55 54 52 62 70 69 70 61 60 55 50 43 45 48 45 38 31 34 42 49 52 56 62 64 67 67 65 66 66 66 65 63 57 53 51 51 52 53 54 55
14 13 9 10 13 16 30 23 48 38 36 45 53 59 60 58 53 50 48 45 48 50 48 48 44 40 40 51 54 57 60 60 64 65 65 60 63 66 61 58 55 54 54 54 56 56 54 53 51
10 8 11 10 10 15 13 19 40 20 52 44 50 51 52 48 48 42 33 37 43 50 52 50 51 49 50 49 55 62 61 63 65 67 66 63 58 64 57 56 59 59 59 58 56 54 50 47 45
9 10 10 10 10 11 13 15 14 30 53 48 48 51 51 48 49 48 47 45 44 47 51 54 54 61 60 61 64 61 64 66 68 70 73 70 66 64 64 64 63 61 56 51 48 46 46 45 43
10 10 11 11 11 13 13 13 16 48 49 49 46 46 46 41 40 42 43 45 45 45 51 58 62 72 71 69 66 66 64 65 70 78 77 68 70 71 66 62 57 52 50 48 48 48 46 43 40
15 16 14 12 11 14 11 15 15 60 54 58 54 53 62 66 67 53 42 40 43 50 60 72 71 74 78 77 76 66 67 59 67 74 70 68 65 62 58 53 50 48 46 44 43 42 41 43 44
21 20 18 16 14 14 14 17 28 54 59 58 57 68 68 69 66 68 61 44 43 59 68 79 82 81 84 85 72 64 58 54 64 62 58 55 52 49 48 46 44 43 42 42 41 40 40 40 42
20 19 19 19 17 17 20 36 52 48 54 71 76 76 75 75 74 75 92 89 83 89 85 88 90 95 79 88 57 54 52 51 50 50 48 47 46 45 44 45 46 47 49 47 42 41 41 52 74
18 19 20 20 19 35 57 63 67 69 74 80 79 78 76 75 70 75 87 89 88 87 84 81 80 91 68 58 51 49 49 47 46 46 45 44 45 47 49 50 51 48 44 40 49 58 66 75 78
25 26 25 24 28 38 52 59 64 68 73 77 78 76 74 72 72 72 67 60 61 65 68 65 60 53 48 43 42 40 42 45 44 46 47 49 51 52 52 50 45 36 31 31 46 65 76 79 72
36 30 29 27 29 34 38 48 60 57 66 68 69 68 66 70 76 80 70 60 48 43 41 40 39 37 35 34 37 39 42 46 48 51 52 53 54 53 50 45 36 34 36 40 46 57 69 75 74
33 29 27 29 28 37 30 45 48 58 66 67 70 72 70 68 72 72 64 53 42 41 39 38 38 38 40 42 42 43 44 48 54 57 56 55 53 49 46 39 40 45 49 51 51 58 68 77 78
30 32 33 33 42 37 38 51 55 64 71 71 70 72 71 72 74 69 59 51 50 46 44 43 43 44 46 47 46 46 48 53 59 57 56 53 48 44 42 43 48 55 60 65 70 74 82 83 83
29 41 50 55 53 62 46 46 54 68 64 66 63 68 68 67 61 60 56 52 53 51 48 50 51 51 50 49 50 52 53 57 58 56 50 44 38 38 43 48 53 54 58 64 68 80 87 84 83
41 50 70 71 75 70 50 55 53 46 53 59 65 67 66 64 65 67 64 61 56 52 54 53 52 53 53 53 53 55 56 55 50 45 42 39 39 41 45 53 56 50 57 65 75 80 80 79 83
42 44 73 58 79 68 52 64 57 55 48 55 58 62 63 62 65 64 61 60 62 60 56 53 53 53 53 52 52 50 46 44 43 42 42 43 45 48 51 54 55 56 63 61 67 69 65 69 71
39 47 42 75 73 76 66 57 54 59 61 60 60 59 62 59 58 63 63 60 58 52 48 50 52 53 54 50 45 44 44 43 42 44 45 45 46 49 56 60 55 68 72 74 77 74 66 65 66
29 41 56 71 57 56 61 64 73 64 65 61 60 62 62 65 69 69 63 59 56 49 47 46 48 52 49 45 45 43 41 43 45 46 45 49 51 54 64 60 64 74 81 80 65 68 66 62 62
40 45 56 60 73 73 79 67 54 60 59 61 61 64 66 71 68 64 57 50 46 42 39 43 49 46 44 45 44 43 44 46 47 49 54 60 65 62 64 66 71 71 78 64 68 65 46 46 52
33 40 45 58 43 84 81 64 46 60 59 61 62 65 70 69 67 62 55 50 46 43 40 46 47 46 51 48 45 46 44 44 49 45 42 37 38 40 58 71 77 78 73 72 72 52 48 50 57
Wind_Speed
7 7 5 0 3 4 3 5 1 3 3 2 5 6 7 6 2 1 7 12 21 23 21 20 20 20 20 19 19 18 17 16 15 15 14 13 12 10 9 9 9 9 10 9 9 10 11 11 12
6 3 3 1 4 2 5 4 1 3 8 10 8 1 3 4 2 8 7 14 24 22 20 20 19 20 19 19 19 17 16 15 14 14 13 12 11 10 9 9 10 10 10 10 11 11 12 12 12
5 2 3 3 3 3 4 1 9 11 4 4 6 5 4 3 2 3 15 22 23 21 20 19 18 19 19 18 16 16 15 15 13 12 11 10 10 10 10 10 9 10 11 11 12 12 12 12 12
4 5 4 4 6 5 3 5 9 8 5 6 5 6 5 2 3 5 21 20 22 21 19 19 18 17 17 16 16 15 15 14 13 12 11 10 10 10 11 11 11 11 11 11 12 12 12 13 12
5 2 3 2 3 4 3 8 1 11 4 3 7 11 4 3 5 18 22 21 23 21 20 18 17 16 16 16 16 15 14 13 12 11 11 11 11 12 11 10 10 11 11 12 13 13 13 13 13
1 2 4 0 3 4 3 10 3 5 2 5 4 6 1 7 16 23 21 23 22 22 20 18 16 16 15 15 15 14 13 12 12 12 11 11 11 12 11 11 10 11 12 12 13 15 15 16 15
5 4 4 3 1 4 4 5 6 1 5 2 7 5 3 6 17 22 23 23 22 21 20 18 16 15 15 15 15 14 13 12 12 11 12 12 11 11 11 11 11 13 12 13 13 13 13 14 13
4 3 3 2 3 3 4 5 9 16 2 3 5 6 6 10 21 23 23 23 22 20 18 17 16 16 16 15 14 14 13 12 12 12 11 9 10 10 9 8 9 9 9 8 8 9 10 11 12
3 4 3 8 11 5 5 4 4 2 4 4 4 6 12 26 27 27 23 21 20 19 18 17 17 16 16 15 15 14 13 12 12 11 9 8 7 6 6 5 4 4 5 4 4 5 7 9 10
4 3 7 5 8 10 15 15 7 5 2 4 4 10 26 28 27 23 21 22 22 22 20 18 18 18 18 17 17 15 16 13 12 10 8 7 5 3 1 1 1 2 3 4 5 6 6 7 9
4 5 6 5 2 6 6 5 2 10 2 5 12 12 15 21 18 19 23 27 30 24 21 21 19 19 19 19 18 17 15 13 11 10 8 7 5 3 2 2 3 3 3 4 5 5 5 7 10
2 5 5 2 6 6 9 7 4 2 4 10 16 20 16 13 17 20 23 27 25 25 24 22 21 20 19 17 16 15 14 12 11 9 7 6 6 4 3 2 2 2 3 4 5 6 8 9 10
2 2 3 8 8 8 8 4 7 2 5 11 14 16 16 15 19 23 30 28 27 27 25 22 20 19 16 14 14 14 13 13 9 8 7 5 4 3 2 1 1 3 4 6 7 8 9 11 14
5 4 3 4 5 5 6 3 5 1 7 11 15 13 11 13 18 15 15 22 27 26 25 21 18 13 11 10 11 14 15 13 11 9 8 6 4 3 1 1 3 4 7 8 9 11 12 14 16
4 4 5 4 2 3 5 1 2 4 10 13 13 8 5 2 4 10 15 21 25 27 23 20 16 8 3 2 3 6 7 9 11 9 6 4 2 1 3 3 3 7 9 10 11 12 13 15 16
5 5 3 3 2 1 4 5 2 7 14 8 8 7 6 4 4 5 7 16 22 22 19 13 15 10 10 9 9 5 2 2 3 4 3 4 5 6 5 6 8 9 10 12 14 15 16 17 19
6 4 2 2 1 3 3 1 9 3 8 7 7 6 6 5 9 8 5 10 15 18 19 20 18 13 9 14 8 4 7 11 12 11 11 10 9 10 9 9 9 12 14 15 16 18 18 20 20
5 3 2 3 2 6 6 4 7 6 7 7 6 6 6 7 7 10 7 7 12 19 24 21 15 7 6 10 15 17 17 17 14 12 11 10 10 9 10 12 12 14 16 19 20 18 17 16 13
3 4 2 1 3 7 5 5 8 7 8 7 7 7 7 8 8 15 19 23 25 24 21 14 7 15 23 19 17 15 16 13 10 8 6 5 5 6 8 9 12 17 20 20 17 15 15 13 16
5 6 3 2 6 7 5 8 7 7 4 4 7 6 7 7 6 13 20 23 25 23 23 22 21 20 18 17 13 8 8 7 6 4 3 4 5 8 12 15 18 19 18 17 15 14 13 10 14
4 5 2 3 3 6 4 5 5 5 6 6 5 5 5 8 9 6 14 19 22 24 24 23 20 16 11 8 7 6 5 3 3 2 1 4 6 10 13 15 15 14 15 16 14 13 11 9 8
3 0 3 4 3 3 3 3 2 3 3 2 4 5 6 6 4 6 11 15 19 17 16 15 14 12 10 8 5 4 4 4 4 3 2 4 8 13 15 14 14 16 17 15 13 11 9 7 6
1 5 5 4 5 4 3 4 4 6 5 8 5 5 6 5 6 7 11 13 10 11 12 11 10 8 5 3 3 4 4 2 4 3 2 6 11 13 14 11 11 11 11 9 9 9 7 5 8
4 5 8 5 3 2 1 4 4 6 6 5 4 5 6 6 3 4 12 13 7 6 9 9 8 6 5 4 3 4 3 3 3 1 5 10 13 14 14 13 12 12 14 10 10 8 6 10 9
6 5 3 3 3 4 3 2 6 4 5 9 9 8 7 7 6 5 8 12 14 14 8 8 5 5 3 2 2 2 3 2 3 6 10 14 14 16 16 14 14 15 11 9 8 9 11 12 12
3 5 4 4 3 3 3 4 4 4 7 9 8 7 6 5 4 2 4 7 7 9 9 6 6 4 3 2 2 1 3 5 8 11 11 14 16 17 18 19 18 14 12 10 10 10 12 13 14
2 3 4 6 1 2 2 4 4 6 5 6 8 7 8 5 4 5 7 9 9 9 6 5 4 3 4 3 3 5 7 9 12 13 14 19 20 22 22 21 19 16 15 14 12 13 14 13 15
2 5 3 3 2 3 3 4 4 5 7 7 9 8 6 6 7 7 11 10 9 8 4 2 1 5 5 6 6 7 12 14 14 14 17 20 19 21 23 20 17 15 12 15 19 17 15 14 14
2 2 6 4 3 4 1 5 5 11 11 13 8 7 8 7 7 5 8 8 7 6 4 1 4 3 4 7 9 12 16 16 14 16 20 22 23 24 22 18 14 9 16 16 12 19 15 14 13
2 3 4 4 3 1 3 6 2 7 8 8 7 7 6 6 6 5 6 6 6 4 3 4 1 6 6 8 13 12 10 11 11 13 13 16 20 21 21 18 15 16 14 16 15 14 16 12 10
Wind_Direction
303 294 267 180 72 58 292 278 125 157 101 51 57 105 124 71 13 248 139 156 158 157 156 153 148 141 136 136 133 130 130 126 123 120 119 115 109 104 101 96 91 90 77 66 57 50 45 44 43
306 292 225 125 81 74 280 257 182 85 132 119 94 101 72 85 8 106 95 151 154 151 154 150 145 140 139 137 135 135 134 131 130 127 122 115 113 109 101 94 86 82 77 71 65 60 58 52 48
295 272 75 88 106 184 237 135 121 132 148 171 114 74 14 72 83 102 140 154 154 152 156 149 149 143 140 140 140 140 137 135 134 126 120 116 112 108 103 97 93 85 81 73 68 60 54 50 40
38 6 28 106 210 233 191 84 151 152 57 27 85 57 83 294 125 156 145 152 154 156 157 154 153 146 144 144 146 145 142 140 136 131 124 121 113 105 97 91 87 79 74 68 59 52 46 45 39
56 52 85 131 238 258 171 115 35 68 35 22 146 155 130 33 147 157 156 157 157 156 158 154 153 149 148 149 148 145 141 139 137 131 128 116 109 101 94 89 82 78 65 59 52 45 40 42 45
52 105 66 128 342 314 61 114 96 60 125 180 98 89 72 136 146 155 162 162 159 156 153 155 154 151 149 148 146 147 147 144 141 132 122 112 110 99 96 88 80 74 78 65 62 57 54 55 48
133 85 171 145 2 19 103 70 88 45 203 235 121 90 96 140 160 161 163 160 156 155 156 156 153 150 151 149 152 150 147 146 138 129 121 119 109 99 96 88 84 76 75 66 57 53 49 45 37
113 108 59 189 11 48 74 84 146 194 308 89 132 153 165 179 165 157 158 159 160 159 159 154 154 156 155 156 150 149 150 149 139 131 125 118 117 107 101 90 85 77 76 65 48 35 32 28 21
151 70 174 174 187 147 77 93 97 310 129 38 26 132 143 159 160 156 159 163 165 164 162 162 162 161 156 155 149 154 151 152 146 140 140 140 137 126 113 92 75 63 62 44 21 1 354 358 8
82 103 223 202 171 161 166 177 140 136 54 44 52 67 124 151 159 157 165 171 175 175 173 170 167 163 161 161 157 159 162 160 161 162 162 166 164 142 146 122 354 11 26 352 340 334 340 348 355
151 194 216 252 241 91 107 115 175 114 244 204 153 135 132 150 165 166 179 180 181 178 181 179 175 170 171 170 168 170 169 173 172 184 187 182 184 200 236 277 318 320 353 360 18 27 13 353 353
281 223 224 174 169 119 134 127 100 151 228 144 152 151 151 168 178 184 188 188 187 188 189 188 183 183 183 183 185 182 183 185 187 192 196 207 218 223 233 252 276 316 340 354 354 348 346 352 357
153 340 90 108 111 113 131 146 165 240 110 110 138 153 167 177 188 195 193 192 191 198 196 197 198 196 196 201 208 210 209 211 208 220 235 233 258 222 237 209 264 324 350 355 353 350 357 354 349
167 59 85 96 116 128 126 131 126 252 133 128 156 168 177 184 195 203 204 198 201 203 204 202 206 214 222 233 246 241 239 234 233 238 252 246 250 234 219 72 27 13 11 12 7 358 350 344 338
85 60 42 39 105 107 129 76 168 146 144 157 173 164 110 98 197 231 220 211 210 212 212 207 204 207 237 233 286 264 253 250 243 240 234 242 241 143 97 84 33 18 8 2 353 347 345 340 336
67 55 80 294 97 25 98 251 19 166 153 125 123 134 105 61 34 276 246 228 222 217 209 181 186 147 77 58 22 334 145 136 172 163 149 103 96 97 91 58 30 14 357 350 345 341 335 333 333
12 155 183 80 66 116 94 66 351 42 112 117 120 112 112 71 30 11 298 242 218 201 183 168 163 131 78 353 279 107 111 97 92 99 91 85 76 56 30 20 11 359 353 348 346 339 336 331 330
195 141 230 199 163 44 42 45 347 349 108 112 102 83 77 70 31 40 66 123 148 148 150 141 142 143 180 168 124 105 95 89 83 76 66 50 37 25 12 9 5 356 348 341 339 336 333 336 336
147 135 131 264 354 81 62 40 8 20 69 93 90 94 91 72 56 87 98 106 109 113 124 135 133 146 138 134 124 109 96 92 94 89 78 53 38 20 10 5 354 350 348 350 350 351 351 354 351
79 98 68 48 6 89 90 50 34 33 52 89 113 101 103 98 64 78 98 104 108 112 118 123 130 142 143 131 118 105 106 105 89 81 64 52 27 13 5 360 354 352 351 346 350 353 354 344 353
43 107 126 154 85 65 108 35 35 22 61 85 65 113 113 136 131 125 111 113 116 118 121 125 125 122 116 111 125 129 139 140 169 176 84 36 17 4 352 348 348 351 346 345 340 333 334 334 343
107 141 110 84 88 163 37 242 93 84 54 75 142 141 140 149 118 119 127 127 126 122 126 130 137 143 148 162 176 189 221 217 226 205 98 21 354 345 344 347 345 342 337 334 331 321 319 318 330
135 59 59 85 81 81 11 83 275 134 194 207 199 174 192 176 179 157 155 134 134 141 147 158 160 162 179 217 256 268 249 228 158 136 13 337 331 331 328 328 329 328 324 324 327 318 304 319 319
118 57 38 43 66 42 269 145 234 196 193 160 184 205 194 188 197 194 147 134 146 155 168 184 188 181 198 234 249 257 242 171 152 267 310 324 323 324 309 307 313 318 319 315 310 297 287 307 310
72 64 5 5 8 219 317 119 249 237 180 170 181 193 199 190 189 200 136 152 163 162 186 173 166 160 170 178 169 175 161 183 286 305 314 322 317 321 313 294 297 301 298 304 301 300 303 305 303
69 138 152 216 197 247 349 245 250 272 201 160 171 188 173 185 205 190 170 172 192 166 163 174 182 184 188 184 167 182 302 293 292 299 305 314 315 318 319 302 292 292 290 287 284 281 286 294 297
183 55 156 107 345 55 255 292 324 44 105 138 159 168 201 192 181 152 160 169 165 130 129 158 176 202 212 225 246 249 264 288 305 309 310 324 323 319 307 293 287 277 273 268 259 270 277 284 286
119 146 68 11 129 274 296 269 230 195 190 176 184 190 160 151 148 150 149 140 119 109 92 60 218 205 198 222 254 300 314 305 304 311 316 312 309 304 297 289 282 280 287 303 298 285 286 287 289
27 63 53 104 111 160 283 262 222 197 193 190 187 180 169 162 152 125 97 86 86 72 46 104 164 191 260 284 307 317 321 321 319 311 307 310 310 311 300 284 274 268 291 290 291 297 291 287 285
179 146 134 112 211 79 144 274 331 251 206 165 183 165 139 130 119 100 83 79 78 69 78 118 234 282 307 331 329 330 346 337 338 341 342 340 331 323 302 277 263 275 268 278 296 287 283 278 272